Simultaneous Nadir Overpasses (SNOs) Predictions

Prediction of SNOs near equator between AQUA and NPP Satellite Orbit:

Table of predicted SNOs near equator for the next 14.0 days since TLE Epoch: 12/2/2016
Index Date (AQUA) Time (AQUA) AQUA Lat,Lon Date (NPP) Time (NPP) NPP Lat,Lon Distance(km) Time Diff (sec)
1 12/04/2016 15:35:42 -5.01, 149.14 12/04/2016 15:26:02 -5.01, 149.03 12.49 580
2 12/04/2016 16:23:58 0.48, -42.27 12/04/2016 16:15:33 0.41, -42.64 42.33 505
3 12/04/2016 17:12:05 4.06, 126.35 12/04/2016 17:04:55 4.21, 125.72 72.34 430
4 12/07/2016 07:51:47 -3.56, -94.66 12/07/2016 07:42:31 -3.49, -94.86 22.91 556
5 12/07/2016 08:40:02 -1.03, 73.93 12/07/2016 08:32:02 -1.10, 73.46 53.02 480
6 12/07/2016 09:28:09 5.57,-117.44 12/07/2016 09:21:24 5.73,-118.17 82.71 405
7 12/09/2016 23:23:04 18.69,-149.76 12/09/2016 23:13:04 18.72,-149.93 18.49 600
8 12/10/2016 00:07:51 -2.06, 21.54 12/09/2016 23:59:00 -1.98, 21.25 33.53 531
9 12/10/2016 00:56:06 -2.52,-169.87 12/10/2016 00:48:31 -2.61,-170.43 63.68 455
10 12/10/2016 01:44:13 7.07, -1.24 12/10/2016 01:37:53 7.24, -2.06 93.05 380
11 12/12/2016 15:35:46 5.07, -30.88 12/12/2016 15:26:05 5.05, -31.00 14.06 581
12 12/12/2016 16:23:54 -0.57, 137.74 12/12/2016 16:15:28 -0.47, 137.35 44.30 506
13 12/12/2016 17:12:08 -4.07, -53.65 12/12/2016 17:04:58 -4.18, -54.31 74.23 430
14 12/15/2016 07:51:49 3.53, 85.34 12/15/2016 07:42:33 3.48, 85.12 24.81 556
15 12/15/2016 08:39:57 0.97,-106.05 12/15/2016 08:31:56 1.09,-106.53 55.07 481
16 12/15/2016 09:28:11 -5.60, 62.56 12/15/2016 09:21:26 -5.74, 61.81 84.73 405




NCC Satellite Simultaneous Nadir Overpasses (SNOs) Prediction Service
